Вернуться в каталог

USA 469

АктивенВоенныеVLEO
NORAD 62538·PAYLOAD·🇺🇸 United States

Запущен Jan 10, 2025 с Vandenberg Space Force Base

Loading…

Ближайшие Пролёты (ближайшие 24 часа)

TLE

УстаревшееSource: Mike McCants

Эпоха: Aug 23, 2026, 20:26 UTC

1 62538U 25005G   26235.85161625 0.00000000  00000-0  00000-0 0    01
2 62538  70.0182 246.9597 0002000 274.8193  85.1806 14.96713588    02

Отслеживайте USA 469 в реальном времени с AllMySat

Download on the App Store